| time (UTC) | temp C | wind direction | speed KPH | gust KPH | rain 1hr cm | rain 24hr cm | rain mn cm | humidity % | barometer mb |
| 20260831053032 | 17 | 177 | 8.0 | 27.4 | 0.00 | 0.58 | 0.58 | 86 | 1015.3 |
| 20260831051506 | 17 | 165 | 4.8 | 20.9 | 0.00 | 0.58 | 0.58 | 87 | 1015.2 |
| 20260831050007 | 17 | 189 | 11.3 | 27.4 | 0.00 | 0.58 | 0.58 | 87 | 1015.1 |
| 20260831044502 | 17 | 205 | 3.2 | 24.1 | 0.00 | 0.58 | 0.58 | 87 | 1014.9 |
| 20260831043001 | 18 | 181 | 11.3 | 20.9 | 0.00 | 0.58 | 0.58 | 87 | 1014.7 |
| 20260831041558 | 18 | 202 | 11.3 | 27.4 | 0.00 | 0.58 | 0.58 | 86 | 1014.7 |
| 20260831040056 | 18 | 211 | 8.0 | 17.7 | 0.00 | 0.58 | 0.58 | 86 | 1014.6 |
| 20260831034554 | 18 | 121 | 11.3 | 20.9 | 0.00 | 0.58 | 0.58 | 85 | 1014.5 |
| 20260831033056 | 18 | 167 | 6.4 | 16.1 | 0.00 | 0.58 | 0.58 | 85 | 1014.5 |
| 20260831031550 | 18 | 227 | 11.3 | 25.7 | 0.00 | 0.58 | 0.58 | 86 | 1014.5 |
| 20260831030049 | 18 | 146 | 12.9 | 20.9 | 0.00 | 0.58 | 0.58 | 86 | 1014.5 |
| 20260831024549 | 18 | 202 | 16.1 | 30.6 | 0.00 | 0.58 | 0.58 | 86 | 1014.3 |
| 20260831023044 | 18 | 156 | 9.7 | 29.0 | 0.00 | 0.58 | 0.58 | 87 | 1014.3 |
| 20260831021543 | 18 | 227 | 6.4 | 17.7 | 0.00 | 0.58 | 0.58 | 87 | 1014.2 |
| 20260831020103 | 18 | 179 | 9.7 | 19.3 | 0.00 | 0.58 | 0.58 | 87 | 1013.7 |
| 20260831014540 | 17 | 196 | 6.4 | 22.5 | 0.00 | 0.58 | 0.58 | 87 | 1013.8 |
| 20260831013039 | 17 | 155 | 11.3 | 22.5 | 0.00 | 0.58 | 0.58 | 87 | 1013.6 |
| 20260831011538 | 17 | 211 | 11.3 | 27.4 | 0.00 | 0.58 | 0.58 | 87 | 1013.6 |
| 20260831010034 | 17 | 200 | 9.7 | 19.3 | 0.03 | 0.58 | 0.58 | 87 | 1013.7 |
| 20260831004542 | 17 | 231 | 4.8 | 17.7 | 0.05 | 0.61 | 0.58 | 87 | 1013.4 |
| 20260831003031 | 17 | 160 | 1.6 | 16.1 | 0.08 | 0.61 | 0.58 | 90 | 1013.5 |
| 20260831001530 | 17 | 148 | 0.0 | 9.7 | 0.15 | 0.61 | 0.58 | 90 | 1013.6 |
| 20260831000028 | 17 | 138 | 6.4 | 14.5 | 0.15 | 0.58 | 0.56 | 90 | 1013.9 |
| 20260830234538 | 18 | 165 | 3.2 | 16.1 | 0.13 | 0.58 | 0.53 | 90 | 1013.7 |
| 20260830233027 | 18 | 200 | 4.8 | 14.5 | 0.15 | 0.53 | 0.51 | 90 | 1014.1 |
| 20260830231527 | 18 | 186 | 0.0 | 9.7 | 0.43 | 0.46 | 0.43 | 89 | 1014.0 |
| 20260830230020 | 18 | 107 | 0.0 | 3.2 | 0.43 | 0.46 | 0.43 | 88 | 1013.1 |
| 20260830224516 | 18 | 123 | 0.0 | 9.7 | 0.43 | 0.46 | 0.43 | 86 | 1012.6 |
| 20260830223013 | 19 | 187 | 4.8 | 29.0 | 0.33 | 0.38 | 0.33 | 83 | 1013.3 |
| 20260830221512 | 21 | 192 | 1.6 | 9.7 | 0.00 | 0.05 | 0.00 | 66 | 1012.7 |
| 20260830220004 | 21 | 96 | 0.0 | 8.0 | 0.00 | 0.05 | 0.00 | 66 | 1011.4 |
| 20260830214503 | 21 | 66 | 1.6 | 8.0 | 0.00 | 0.05 | 0.05 | 66 | 1011.2 |
| 20260830213004 | 21 | 82 | 0.0 | 6.4 | 0.00 | 0.05 | 0.05 | 65 | 1011.3 |
| 20260830211603 | 21 | 65 | 0.0 | 8.0 | 0.00 | 0.05 | 0.05 | 65 | 1011.4 |
| 20260830204603 | 22 | 63 | 0.0 | 3.2 | 0.00 | 0.05 | 0.05 | 63 | 1011.6 |
| 20260830203107 | 22 | 60 | 0.0 | 0.0 | 0.00 | 0.05 | 0.05 | 62 | 1011.7 |
| 20260830201602 | 23 | 57 | 0.0 | 0.0 | 0.00 | 0.05 | 0.05 | 60 | 1011.6 |
| 20260830200057 | 23 | 128 | 0.0 | 0.0 | 0.00 | 0.05 | 0.05 | 59 | 1011.6 |
| 20260830194557 | 24 | 162 | 0.0 | 0.0 | 0.00 | 0.05 | 0.05 | 57 | 1011.7 |
| 20260830193057 | 24 | 164 | 0.0 | 0.0 | 0.00 | 0.05 | 0.05 | 53 | 1011.8 |
| 20260830191556 | 25 | 167 | 0.0 | 0.0 | 0.00 | 0.05 | 0.05 | 52 | 1011.7 |
| 20260830190056 | 25 | 160 | 0.0 | 0.0 | 0.00 | 0.05 | 0.05 | 52 | 1011.6 |
| 20260830184606 | 25 | 170 | 0.0 | 0.0 | 0.00 | 0.05 | 0.05 | 51 | 1011.5 |
| 20260830183057 | 25 | 190 | 0.0 | 0.0 | 0.00 | 0.05 | 0.05 | 49 | 1011.5 |
| 20260830181654 | 26 | 190 | 0.0 | 0.0 | 0.00 | 0.05 | 0.05 | 49 | 1011.4 |
| 20260830180055 | 26 | 210 | 0.0 | 0.0 | 0.00 | 0.05 | 0.05 | 48 | 1011.5 |
| 20260830174558 | 26 | 210 | 0.0 | 0.0 | 0.00 | 0.05 | 0.05 | 47 | 1011.6 |
| 20260830173052 | 27 | 222 | 0.0 | 0.0 | 0.00 | 0.05 | 0.05 | 46 | 1011.7 |
| 20260830171550 | 27 | 223 | 0.0 | 0.0 | 0.00 | 0.05 | 0.05 | 44 | 1011.6 |
| 20260830170049 | 27 | 248 | 0.0 | 11.3 | 0.00 | 0.05 | 0.05 | 43 | 1011.7 |
| 20260830164549 | 28 | 188 | 3.2 | 12.9 | 0.00 | 0.05 | 0.05 | 41 | 1011.7 |
| 20260830163051 | 28 | 246 | 3.2 | 17.7 | 0.00 | 0.05 | 0.05 | 40 | 1011.9 |
| 20260830161604 | 28 | 234 | 3.2 | 14.5 | 0.00 | 0.05 | 0.05 | 40 | 1011.8 |
| 20260830160046 | 29 | 231 | 6.4 | 17.7 | 0.00 | 0.05 | 0.05 | 39 | 1011.8 |
| 20260830154545 | 29 | 248 | 11.3 | 25.7 | 0.00 | 0.05 | 0.05 | 39 | 1011.8 |
| 20260830153054 | 30 | 221 | 4.8 | 17.7 | 0.00 | 0.05 | 0.05 | 39 | 1011.9 |
| 20260830151546 | 30 | 189 | 8.0 | 16.1 | 0.00 | 0.05 | 0.05 | 39 | 1012.1 |
| 20260830150044 | 30 | 242 | 9.7 | 19.3 | 0.00 | 0.05 | 0.05 | 39 | 1012.2 |
| 20260830144538 | 29 | 200 | 1.6 | 19.3 | 0.00 | 0.05 | 0.05 | 40 | 1012.2 |
| 20260830143043 | 28 | 210 | 11.3 | 27.4 | 0.00 | 0.05 | 0.05 | 41 | 1012.4 |
| 20260830141533 | 28 | 184 | 9.7 | 24.1 | 0.00 | 0.05 | 0.05 | 42 | 1012.5 |
| 20260830140029 | 28 | 159 | 6.4 | 27.4 | 0.00 | 0.05 | 0.05 | 43 | 1012.5 |
| 20260830134532 | 28 | 191 | 6.4 | 22.5 | 0.00 | 0.05 | 0.05 | 44 | 1012.7 |
| 20260830133022 | 27 | 207 | 4.8 | 16.1 | 0.00 | 0.05 | 0.05 | 48 | 1012.9 |
| 20260830131520 | 28 | 98 | 6.4 | 24.1 | 0.00 | 0.05 | 0.05 | 48 | 1013.0 |
| 20260830130018 | 28 | 235 | 4.8 | 14.5 | 0.00 | 0.05 | 0.05 | 50 | 1013.2 |
| 20260830124515 | 27 | 321 | 8.0 | 22.5 | 0.00 | 0.05 | 0.05 | 50 | 1013.2 |
| 20260830123015 | 27 | 236 | 11.3 | 22.5 | 0.00 | 0.05 | 0.05 | 51 | 1013.3 |
| 20260830121515 | 27 | 210 | 8.0 | 24.1 | 0.00 | 0.05 | 0.05 | 50 | 1013.3 |
| 20260830120014 | 27 | 215 | 12.9 | 24.1 | 0.00 | 0.05 | 0.05 | 50 | 1013.3 |
| 20260830114522 | 27 | 155 | 8.0 | 22.5 | 0.00 | 0.05 | 0.05 | 51 | 1013.5 |
| 20260830113005 | 26 | 200 | 3.2 | 17.7 | 0.00 | 0.05 | 0.05 | 55 | 1013.5 |
| 20260830111502 | 26 | 155 | 9.7 | 22.5 | 0.00 | 0.05 | 0.05 | 56 | 1013.7 |
| 20260830110059 | 25 | 163 | 11.3 | 20.9 | 0.00 | 0.05 | 0.05 | 58 | 1013.8 |
| 20260830104600 | 25 | 151 | 9.7 | 22.5 | 0.00 | 0.05 | 0.05 | 57 | 1013.9 |
| 20260830103058 | 25 | 192 | 11.3 | 22.5 | 0.00 | 0.05 | 0.05 | 58 | 1014.0 |
| 20260830101606 | 25 | 183 | 8.0 | 25.7 | 0.00 | 0.05 | 0.05 | 57 | 1014.1 |
| 20260830100056 | 25 | 205 | 4.8 | 24.1 | 0.00 | 0.05 | 0.05 | 57 | 1014.2 |
| 20260830094555 | 25 | 195 | 4.8 | 25.7 | 0.00 | 0.05 | 0.05 | 58 | 1014.2 |
| 20260830093050 | 25 | 123 | 4.8 | 16.1 | 0.00 | 0.05 | 0.05 | 59 | 1014.3 |
| 20260830091547 | 24 | 213 | 9.7 | 17.7 | 0.00 | 0.05 | 0.05 | 59 | 1014.4 |
| 20260830090047 | 23 | 223 | 8.0 | 20.9 | 0.00 | 0.05 | 0.05 | 62 | 1014.4 |
| 20260830084541 | 23 | 195 | 9.7 | 17.7 | 0.00 | 0.05 | 0.05 | 64 | 1014.4 |
| 20260830083050 | 22 | 197 | 9.7 | 16.1 | 0.00 | 0.05 | 0.05 | 65 | 1014.5 |
| 20260830081641 | 22 | 164 | 3.2 | 17.7 | 0.00 | 0.05 | 0.05 | 66 | 1014.5 |
| 20260830080026 | 22 | 239 | 9.7 | 16.1 | 0.00 | 0.05 | 0.05 | 66 | 1014.5 |
| 20260830074530 | 22 | 234 | 3.2 | 16.1 | 0.00 | 0.05 | 0.05 | 67 | 1014.4 |
| 20260830073024 | 22 | 152 | 4.8 | 22.5 | 0.00 | 0.05 | 0.05 | 67 | 1014.3 |
| 20260830071522 | 22 | 123 | 8.0 | 19.3 | 0.00 | 0.05 | 0.05 | 67 | 1014.2 |
| 20260830070023 | 21 | 134 | 9.7 | 22.5 | 0.00 | 0.05 | 0.05 | 68 | 1014.0 |
| 20260830064524 | 21 | 207 | 3.2 | 14.5 | 0.00 | 0.05 | 0.05 | 71 | 1014.1 |
| 20260830063017 | 20 | 224 | 0.0 | 9.7 | 0.00 | 0.05 | 0.05 | 72 | 1014.1 |
| 20260830061514 | 20 | 236 | 0.0 | 3.2 | 0.00 | 0.05 | 0.05 | 72 | 1014.0 |
| 20260830060013 | 20 | 237 | 0.0 | 0.0 | 0.00 | 0.05 | 0.05 | 72 | 1013.9 |
| 20260830054512 | 20 | 237 | 0.0 | 0.0 | 0.00 | 0.05 | 0.05 | 72 | 1013.9 |